COSMOS 2529 (757)

Last updated on Fri Jul 04 2025 00:03:15 GMT+0000 (Coordinated Universal Time)

1 43687U 18086A 25184.05237242 .00000086 00000+0 00000+0 0 9998 2 43687 64.2940 204.3841 0011937 257.8158 102.1016 2.13102161 51840
UTC large
Height (km)
Speed (km/s)
/
Latitude / Longitude
Inclination (degrees)
Orbital Period (minutes)
Azimuth
Elevation
Range (km)
Doppler Factor

Next 0 passes for location: London (51.5072 / 0.1276)

Sorry there are no passes over London.